COSMOS 2251 DEB, 37975

Orbit data source: Space-Track

COSMOS 2251 DEB, 37975 is space debris in LEO originally from a launch on Wed, 16 Jun 1993 UTC launched from the Plesetsk Missile And Space Complex (PKMTR). The debris from Iridium 33, an American commercial communications satellite, has been tracked extensively since its accidental collision with the defunct Russian satellite Cosmos 2251 in 2009. This event, occurring at high speed in low Earth orbit (LEO), generated thousands of pieces of space debris, significantly increasing the risk of further collisions. The Iridium 33 debris cloud has impacted space traffic management and orbital debris mitigation strategies, making it a subject of ongoing study in space situational awareness.

Loading next visibility...
Identifier
37975, 1993-036BQA
Orbit
LEO
Country
Flag of CISCIS
Related business
Manufacturer
Unknown
Mission
Spacecraft
Bus & Motor
Unknown
Mass
Unknown
Launch date (UTC)
1993-06-16 (33 years ago)
Launch vehicle
Unknown
Launch site
Plesetsk Missile And Space Complex (PKMTR)
Object type
Payload
Rocket body
Debris
Shape & HBR
Unknown shape, 0.1 m
Radar Cross Section
Small (<0.1 m²)

Expand to show TLE details & history
Last TLE update: 4 days ago

TLE from 4 days ago
0 COSMOS 2251 DEB
1 37975U 93036BQA 26169.76006348  .00014509  00000-0  16179-2 0  9995
2 37975  73.9994 312.2174 0073514 255.9562 103.3437 14.85084647725291
Epoch: 2026-06-18T18:14Z
TLE epoch observation values (Epoch: 2026-06-18T18:14:29.484Z)
Latitude
-0.00003°
Longitude
131.59577°
Altitude
628.209 km
Speed
7.538 km/s
True Right ascension
20h 48m 52s
True Declination
0° 00' 00"
Sunlit
Object was in full shadow at epoch
Visualization orbit readout
Latitude
Unknown
Longitude
Unknown
Altitude
Unknown
Speed
Unknown
Apparent Right ascension
Unknown
Apparent Declination
Unknown
Sunlit
N/A
Visualization observer readout
Local Sidereal Time
06:06:35
Azimuth
Unknown
Elevation
Unknown
Doppler factor
Unknown
Orbital elements
Apogee altitude
662.272 km
Perigee altitude
559.514 km
Semi-major axis
6,989.03 km
Eccentricity
0.00735
Inclination
73.9994°
RAAN
312.2174°
Arg. of periapsis
255.9562°
True anomaly
104.1616°
Mean anomaly
103.3437°
Eccentric anomaly
103.75283°
Mean motion
3.71465 °/min
Orbital period
96.91 mins
BSTAR
0.0016179

Documentation

Showing up to 5 results
|